{"data":{"norad_id":62599,"epoch":"2026-05-25T01:09:26.307360Z","epoch_age_seconds":74840,"freshness":"FRESH","line1":"1 62599U 25008N   26145.04822115  .00135660  00000+0  10411-2 0  9996","line2":"2 62599  43.0016  25.8796 0002732 264.1794  95.8762 15.70894005 79306","mean_motion":15.70894005,"eccentricity":0.0002732,"inclination_deg":43.0016,"raan_deg":25.8796,"arg_perigee_deg":264.1794,"mean_anomaly_deg":95.8762,"bstar":0.0010411,"rev_number":7930,"period_min":91.667546977493,"perigee_km":354.50085028323,"apogee_km":358.18056890375,"semimajor_km":6734.4777095935,"source":"CELESTRAK","updated_at":"2026-05-25T13:38:19.735557Z"}}